MILESOVKA Weather Reports


Display with metric or nautical units.
time (UTC)temp
F
wind
direction
speed
MPH
gust
MPH
rain 1hr
in
rain 24hr
in
rain mn
in
humidity
%
barometer
mb
20260507141745 46 310 14.0 0.0 0.00 0.00 0.00 99
20260507131846 48 340 12.0 0.0 0.00 0.00 0.00 99
20260507121745 54 250 14.0 24.0 0.00 0.00 0.00 87
20260507111745 52 230 18.0 0.0 0.00 0.00 0.00 93
20260507101945 52 230 18.0 0.0 0.00 0.00 0.00 99
20260507091745 50 230 12.0 0.0 0.00 0.00 0.00 99
20260507081745 48 270 9.0 0.0 0.00 0.00 0.00 99
20260507071745 48 270 7.0 0.0 0.00 0.00 0.00 99
20260507061745 48 310 5.0 0.0 0.00 0.00 0.00 99
20260507051744 48 240 12.0 0.0 0.00 0.00 0.00 99
20260507041947 48 0 0.0 0.0 0.00 0.00 0.00 99
20260507031744 48 250 5.0 0.0 0.00 0.00 0.00 99
20260507021743 48 230 7.0 0.0 0.00 0.00 0.00 99
20260507011845 48 350 9.0 0.0 0.00 0.00 0.00 99
20260507001745 50 250 14.0 0.0 0.00 0.00 0.00 99
20260506231745 50 250 9.0 0.0 0.00 0.00 0.00 99
20260506221945 50 240 16.0 0.0 0.00 0.00 0.00 99
20260506211744 52 100 7.0 0.0 0.00 0.00 0.00 99
20260506201802 54 60 12.0 0.0 0.00 0.00 0.00 87
20260506191833 55 70 7.0 0.0 0.00 0.00 0.00 87
20260506181822 57 320 12.0 0.0 0.00 0.00 0.00 71
20260506171744 61 240 5.0 0.0 0.00 0.00 0.00 63
20260506161945 61 250 5.0 0.0 0.00 0.00 0.00 63
20260506151801 64 210 12.0 0.0 0.00 0.00 0.00 55